Voltar ao catálogo

FENGYUN 1C DEB

AtivoSSO
NORAD 31949·DEBRIS·🇨🇳 China

Lançado May 10, 1999 de Taiyuan Satellite Launch Center

Loading…

Próximas Passagens (próximas 24 horas)

TLE

EnvelhecendoSource: Space-Track

Época: Sep 9, 2026, 18:08 UTC

1 31949U 99025CNA 26252.75575271  .00000337  00000-0  17332-3 0  9999
2 31949  98.5716 233.2436 0126249 151.5225 209.2925 14.17276281993438

Acompanhe FENGYUN 1C DEB em tempo real com AllMySat

Download on the App Store